CRYOSAT 2

Last updated on Mon Sep 21 2026 00:03:33 GMT+0000 (Coordinated Universal Time)

1 36508U 10013A 26263.60479794 .00000122 00000+0 29641-4 0 9992 2 36508 92.0269 300.4682 0002295 85.7156 274.4314 14.51901788871921
UTC large
Height (km)
Speed (km/s)
/
Latitude / Longitude
Inclination (degrees)
Orbital Period (minutes)
Azimuth
Elevation
Range (km)
Doppler Factor

Next 0 passes for location: London (51.5072 / 0.1276)

No passes found over London.
CRYOSAT 2